Ask Your Question

daniel_dsouza's profile - karma

daniel_dsouza's karma change log

10 0 Having trouble using CUDA enabled OpenCV with kinetic ( 2019-10-11 02:55:52 -0500 )

10 0 Changed by moderator. Reason: Compensated by admin during recalculation of karma ( 2019-06-02 22:20:20 -0500 )

10 0 Having trouble using CUDA enabled OpenCV with kinetic ( 2019-04-24 05:52:17 -0500 )

10 0 Having trouble using CUDA enabled OpenCV with kinetic ( 2019-04-24 05:52:10 -0500 )

10 0 Having trouble using CUDA enabled OpenCV with kinetic ( 2017-11-14 10:09:26 -0500 )

10 0 Having trouble using CUDA enabled OpenCV with kinetic ( 2017-11-01 07:08:33 -0500 )

10 0 Having trouble using CUDA enabled OpenCV with kinetic ( 2017-10-26 11:41:42 -0500 )

10 0 Having trouble using CUDA enabled OpenCV with kinetic ( 2017-10-12 01:09:22 -0500 )

10 0 Having trouble with custom nodelets ( 2017-07-26 13:27:31 -0500 )

10 0 Having trouble with custom nodelets ( 2017-07-26 13:27:26 -0500 )

0 -10 Having trouble using CUDA enabled OpenCV with kinetic ( 2017-05-03 18:57:18 -0500 )

10 0 Having trouble using CUDA enabled OpenCV with kinetic ( 2017-05-03 18:57:13 -0500 )

10 0 ROSARIA -- Impossible to Install ( 2016-12-17 07:26:42 -0500 )

0 -10 ROSARIA -- Impossible to Install ( 2016-12-17 07:26:40 -0500 )

10 0 ROSARIA -- Impossible to Install ( 2016-12-17 07:26:38 -0500 )

10 0 Having trouble using CUDA enabled OpenCV with kinetic ( 2016-09-02 00:46:03 -0500 )

10 0 ROSARIA -- Impossible to Install ( 2016-07-26 10:06:41 -0500 )

0 -10 ROSARIA -- Impossible to Install ( 2016-07-26 10:06:39 -0500 )

10 0 ROSARIA -- Impossible to Install ( 2016-07-26 10:06:38 -0500 )

0 -10 ROSARIA -- Impossible to Install ( 2016-07-26 10:06:38 -0500 )

10 0 ROSARIA -- Impossible to Install ( 2016-07-26 10:06:37 -0500 )

0 -10 ROSARIA -- Impossible to Install ( 2016-07-26 10:06:34 -0500 )

10 0 ROSARIA -- Impossible to Install ( 2016-07-25 09:01:05 -0500 )

10 0 ROSARIA -- Impossible to Install ( 2016-07-24 13:51:32 -0500 )

10 0 How to move TurtleBot in gazebo 7 ( 2016-06-02 03:55:24 -0500 )

15 0 Installation of RosAria in ROS kinect ( 2016-05-28 13:06:55 -0500 )

10 0 Installation of RosAria in ROS kinect ( 2016-05-28 13:06:54 -0500 )

10 0 ROSARIA -- Impossible to Install ( 2016-05-28 12:49:45 -0500 )

15 0 ROSARIA -- Impossible to Install ( 2016-05-27 18:00:56 -0500 )

10 0 ROSARIA -- Impossible to Install ( 2016-05-27 18:00:54 -0500 )

2 0 Converting a basis to a quaternion python ( 2016-02-09 16:59:29 -0500 )